Time,TemperatureF,DewpointF,PressureIn,WindDirection,WindDirectionDegrees,WindSpeedMPH,WindSpeedGustMPH,Humidity,HourlyPrecipIn,Conditions,Clouds,dailyrainin,SoftwareType,DateUTC
2013-02-11 00:00:00,15.6,11.6,30.32,ESE,109,0.0,0.0,84,0.00,,,0.00,Wunderground v.1.15,2013-02-11 05:00:00,
2013-02-11 00:01:00,15.6,11.6,30.32,ESE,109,0.0,0.0,84,0.00,,,0.00,Wunderground v.1.15,2013-02-11 05:01:00,
2013-02-11 00:02:00,15.6,11.6,30.32,ESE,109,0.0,0.0,84,0.00,,,0.00,Wunderground v.1.15,2013-02-11 05:02:00,
2013-02-11 00:08:00,15.5,11.3,30.32,ESE,108,1.0,1.0,83,0.00,,,0.00,Wunderground v.1.15,2013-02-11 05:08:00,
2013-02-11 00:13:00,15.5,11.3,30.31,ESE,109,0.0,0.0,83,0.00,,,0.00,Wunderground v.1.15,2013-02-11 05:13:00,
2013-02-11 00:18:00,15.4,11.2,30.32,ESE,109,0.0,0.0,83,0.00,,,0.00,Wunderground v.1.15,2013-02-11 05:18:00,
2013-02-11 00:23:00,15.3,11.1,30.32,ESE,109,0.0,0.0,83,0.00,,,0.00,Wunderground v.1.15,2013-02-11 05:23:00,
2013-02-11 00:28:00,15.3,11.1,30.32,ESE,109,0.0,0.0,83,0.00,,,0.00,Wunderground v.1.15,2013-02-11 05:28:00,
2013-02-11 00:33:00,15.3,11.1,30.32,ESE,109,0.0,0.0,83,0.00,,,0.00,Wunderground v.1.15,2013-02-11 05:33:00,
2013-02-11 00:38:00,15.2,11.0,30.32,ESE,109,0.0,0.0,83,0.00,,,0.00,Wunderground v.1.15,2013-02-11 05:38:00,
2013-02-11 00:44:00,15.2,11.0,30.31,ESE,109,0.0,0.0,83,0.00,,,0.00,Wunderground v.1.15,2013-02-11 05:44:00,
2013-02-11 00:49:00,15.2,11.0,30.31,ESE,108,0.0,0.0,83,0.00,,,0.00,Wunderground v.1.15,2013-02-11 05:49:00,
2013-02-11 00:54:00,15.1,10.9,30.31,ESE,109,0.0,0.0,83,0.00,,,0.00,Wunderground v.1.15,2013-02-11 05:54:00,
2013-02-11 00:59:00,15.1,10.9,30.31,ESE,109,0.0,0.0,83,0.00,,,0.00,Wunderground v.1.15,2013-02-11 05:59:00,
2013-02-11 01:04:00,15.2,11.0,30.31,ESE,109,0.0,0.0,83,0.00,,,0.00,Wunderground v.1.15,2013-02-11 06:04:00,
2013-02-11 01:10:00,15.2,11.0,30.30,ESE,109,0.0,0.0,83,0.00,,,0.00,Wunderground v.1.15,2013-02-11 06:10:00,
2013-02-11 01:15:00,15.3,11.1,30.30,ESE,109,0.0,0.0,83,0.00,,,0.00,Wunderground v.1.15,2013-02-11 06:15:00,
2013-02-11 01:20:00,15.3,11.1,30.30,ESE,109,0.0,0.0,83,0.00,,,0.00,Wunderground v.1.15,2013-02-11 06:20:00,
2013-02-11 01:25:00,15.4,11.2,30.29,ESE,109,0.0,0.0,83,0.00,,,0.00,Wunderground v.1.15,2013-02-11 06:25:00,
2013-02-11 01:31:00,15.5,11.3,30.29,ESE,109,0.0,0.0,83,0.00,,,0.00,Wunderground v.1.15,2013-02-11 06:31:00,
2013-02-11 01:36:00,15.5,11.3,30.29,ESE,109,0.0,0.0,83,0.00,,,0.00,Wunderground v.1.15,2013-02-11 06:36:00,
2013-02-11 01:41:00,15.5,11.5,30.29,ESE,109,0.0,0.0,84,0.00,,,0.00,Wunderground v.1.15,2013-02-11 06:41:00,
2013-02-11 01:46:00,15.6,11.6,30.28,ESE,109,0.0,2.0,84,0.00,,,0.00,Wunderground v.1.15,2013-02-11 06:46:00,
2013-02-11 01:52:00,15.7,11.7,30.28,ESE,109,0.0,0.0,84,0.00,,,0.00,Wunderground v.1.15,2013-02-11 06:52:00,
2013-02-11 01:57:00,15.7,11.7,30.28,ESE,109,0.0,0.0,84,0.00,,,0.00,Wunderground v.1.15,2013-02-11 06:57:00,
2013-02-11 02:02:00,15.8,11.8,30.28,ESE,109,0.0,0.0,84,0.00,,,0.00,Wunderground v.1.15,2013-02-11 07:02:00,
2013-02-11 02:07:00,15.9,11.9,30.27,ESE,109,0.0,0.0,84,0.00,,,0.00,Wunderground v.1.15,2013-02-11 07:07:00,
2013-02-11 02:12:00,15.9,11.7,30.27,ESE,107,0.0,0.0,83,0.00,,,0.00,Wunderground v.1.15,2013-02-11 07:12:00,
2013-02-11 02:17:00,16.0,11.7,30.27,ESE,109,0.0,0.0,83,0.00,,,0.00,Wunderground v.1.15,2013-02-11 07:17:00,
2013-02-11 02:22:00,16.1,11.8,30.27,ESE,109,0.0,0.0,83,0.00,,,0.00,Wunderground v.1.15,2013-02-11 07:22:00,
2013-02-11 02:27:00,16.1,11.8,30.27,ESE,109,0.0,0.0,83,0.00,,,0.00,Wunderground v.1.15,2013-02-11 07:27:00,
2013-02-11 02:32:00,16.2,11.9,30.26,ESE,109,0.0,0.0,83,0.00,,,0.00,Wunderground v.1.15,2013-02-11 07:32:00,
2013-02-11 02:37:00,16.3,12.3,30.26,ESE,109,0.0,0.0,84,0.00,,,0.00,Wunderground v.1.15,2013-02-11 07:37:00,
2013-02-11 02:42:00,16.3,12.3,30.26,ESE,109,0.0,0.0,84,0.00,,,0.00,Wunderground v.1.15,2013-02-11 07:42:00,
2013-02-11 02:47:00,16.4,12.4,30.25,ESE,109,0.0,0.0,84,0.00,,,0.00,Wunderground v.1.15,2013-02-11 07:47:00,
2013-02-11 02:52:00,16.5,12.5,30.26,ESE,109,0.0,0.0,84,0.00,,,0.00,Wunderground v.1.15,2013-02-11 07:52:00,
2013-02-11 02:57:00,16.6,12.6,30.26,ESE,109,0.0,0.0,84,0.00,,,0.00,Wunderground v.1.15,2013-02-11 07:57:00,
2013-02-11 03:02:00,16.6,12.6,30.26,ESE,109,0.0,0.0,84,0.00,,,0.00,Wunderground v.1.15,2013-02-11 08:02:00,
2013-02-11 03:07:00,16.7,12.7,30.26,ESE,109,0.0,0.0,84,0.00,,,0.00,Wunderground v.1.15,2013-02-11 08:07:00,
2013-02-11 03:12:00,16.8,12.8,30.26,ESE,109,0.0,2.0,84,0.00,,,0.00,Wunderground v.1.15,2013-02-11 08:12:00,
2013-02-11 03:17:00,16.8,12.8,30.26,ESE,109,0.0,2.0,84,0.00,,,0.00,Wunderground v.1.15,2013-02-11 08:17:00,
2013-02-11 03:22:00,17.0,13.0,30.26,ESE,109,0.0,0.0,84,0.00,,,0.00,Wunderground v.1.15,2013-02-11 08:22:00,
2013-02-11 03:27:00,17.1,13.1,30.25,ESE,109,0.0,0.0,84,0.00,,,0.00,Wunderground v.1.15,2013-02-11 08:27:00,
2013-02-11 03:32:00,17.2,13.2,30.25,ESE,109,0.0,0.0,84,0.00,,,0.00,Wunderground v.1.15,2013-02-11 08:32:00,
2013-02-11 03:37:00,17.4,13.4,30.25,ESE,109,0.0,0.0,84,0.00,,,0.00,Wunderground v.1.15,2013-02-11 08:37:00,
2013-02-11 03:42:00,17.5,13.5,30.25,ESE,109,1.0,2.0,84,0.00,,,0.00,Wunderground v.1.15,2013-02-11 08:42:00,
2013-02-11 03:47:00,17.7,13.7,30.24,ESE,109,0.0,2.0,84,0.00,,,0.00,Wunderground v.1.15,2013-02-11 08:47:00,
2013-02-11 03:52:00,17.8,13.8,30.25,ESE,109,0.0,0.0,84,0.00,,,0.00,Wunderground v.1.15,2013-02-11 08:52:00,
2013-02-11 03:57:00,17.9,13.9,30.24,ESE,109,0.0,0.0,84,0.00,,,0.00,Wunderground v.1.15,2013-02-11 08:57:00,
2013-02-11 04:02:00,18.1,14.1,30.24,ESE,109,0.0,0.0,84,0.00,,,0.00,Wunderground v.1.15,2013-02-11 09:02:00,
2013-02-11 04:07:00,18.2,14.2,30.24,ESE,109,0.0,0.0,84,0.00,,,0.00,Wunderground v.1.15,2013-02-11 09:07:00,
2013-02-11 04:12:00,18.4,14.4,30.24,ESE,109,0.0,0.0,84,0.00,,,0.00,Wunderground v.1.15,2013-02-11 09:12:00,
2013-02-11 04:17:00,18.5,14.5,30.24,ESE,109,0.0,0.0,84,0.00,,,0.00,Wunderground v.1.15,2013-02-11 09:17:00,
2013-02-11 04:22:00,18.6,14.6,30.23,ESE,109,0.0,0.0,84,0.00,,,0.00,Wunderground v.1.15,2013-02-11 09:22:00,
2013-02-11 04:27:00,18.8,14.8,30.23,ESE,109,0.0,0.0,84,0.00,,,0.00,Wunderground v.1.15,2013-02-11 09:27:00,
2013-02-11 04:32:00,18.9,14.9,30.23,ESE,109,0.0,0.0,84,0.00,,,0.00,Wunderground v.1.15,2013-02-11 09:32:00,
2013-02-11 04:37:00,19.0,15.0,30.23,ESE,109,0.0,0.0,84,0.00,,,0.00,Wunderground v.1.15,2013-02-11 09:37:00,
2013-02-11 04:42:00,19.1,15.3,30.23,ESE,109,0.0,0.0,85,0.00,,,0.00,Wunderground v.1.15,2013-02-11 09:42:00,
2013-02-11 04:47:00,19.2,15.4,30.22,ESE,109,0.0,0.0,85,0.00,,,0.00,Wunderground v.1.15,2013-02-11 09:47:00,
2013-02-11 04:52:00,19.3,15.5,30.22,ESE,109,0.0,0.0,85,0.00,,,0.00,Wunderground v.1.15,2013-02-11 09:52:00,
2013-02-11 04:57:00,19.4,15.6,30.22,ESE,109,0.0,0.0,85,0.00,,,0.00,Wunderground v.1.15,2013-02-11 09:57:00,
2013-02-11 05:02:00,19.5,15.7,30.22,ESE,109,0.0,0.0,85,0.00,,,0.00,Wunderground v.1.15,2013-02-11 10:02:00,
2013-02-11 05:07:00,19.6,15.8,30.22,ESE,109,0.0,0.0,85,0.00,,,0.00,Wunderground v.1.15,2013-02-11 10:07:00,
2013-02-11 05:12:00,19.7,15.9,30.22,ESE,109,0.0,0.0,85,0.00,,,0.00,Wunderground v.1.15,2013-02-11 10:12:00,
2013-02-11 05:17:00,19.7,15.9,30.22,ESE,109,0.0,0.0,85,0.00,,,0.00,Wunderground v.1.15,2013-02-11 10:17:00,
2013-02-11 05:22:00,19.7,15.9,30.22,ESE,109,0.0,0.0,85,0.00,,,0.00,Wunderground v.1.15,2013-02-11 10:22:00,
2013-02-11 05:27:00,19.7,15.9,30.22,ESE,109,0.0,0.0,85,0.00,,,0.00,Wunderground v.1.15,2013-02-11 10:27:00,
2013-02-11 05:32:00,19.7,15.9,30.21,ESE,109,0.0,0.0,85,0.00,,,0.00,Wunderground v.1.15,2013-02-11 10:32:00,
2013-02-11 05:37:00,19.7,15.9,30.22,ESE,115,1.0,3.0,85,0.00,,,0.00,Wunderground v.1.15,2013-02-11 10:37:00,
2013-02-11 05:42:00,19.7,15.9,30.22,SSE,159,3.0,3.0,85,0.00,,,0.00,Wunderground v.1.15,2013-02-11 10:42:00,
2013-02-11 05:47:00,19.8,16.0,30.22,SSE,159,0.0,3.0,85,0.00,,,0.00,Wunderground v.1.15,2013-02-11 10:47:00,
2013-02-11 05:52:00,19.9,16.1,30.22,SSE,159,0.0,2.0,85,0.00,,,0.00,Wunderground v.1.15,2013-02-11 10:52:00,
2013-02-11 05:57:00,20.0,16.2,30.22,SSE,159,1.0,3.0,85,0.00,,,0.00,Wunderground v.1.15,2013-02-11 10:57:00,
2013-02-11 06:02:00,20.1,16.3,30.21,SSE,159,0.0,1.0,85,0.00,,,0.00,Wunderground v.1.15,2013-02-11 11:02:00,
2013-02-11 06:07:00,20.2,16.4,30.22,SSW,194,1.0,3.0,85,0.00,,,0.00,Wunderground v.1.15,2013-02-11 11:07:00,
2013-02-11 06:12:00,20.3,16.5,30.21,SSW,194,0.0,1.0,85,0.00,,,0.00,Wunderground v.1.15,2013-02-11 11:12:00,
2013-02-11 06:17:00,20.5,16.7,30.20,SSW,194,0.0,4.0,85,0.00,,,0.00,Wunderground v.1.15,2013-02-11 11:17:00,
2013-02-11 06:22:00,20.6,16.8,30.19,SSW,194,0.0,0.0,85,0.00,,,0.00,Wunderground v.1.15,2013-02-11 11:22:00,
2013-02-11 06:28:00,20.7,16.9,30.19,SSW,194,0.0,1.0,85,0.00,,,0.00,Wunderground v.1.15,2013-02-11 11:28:00,
2013-02-11 06:33:00,20.9,17.1,30.19,SSW,194,0.0,2.0,85,0.00,,,0.00,Wunderground v.1.15,2013-02-11 11:33:00,
2013-02-11 06:38:00,21.0,17.2,30.19,SSW,194,0.0,2.0,85,0.00,,,0.00,Wunderground v.1.15,2013-02-11 11:38:00,
2013-02-11 06:43:00,21.2,17.4,30.19,SSW,194,0.0,1.0,85,0.00,,,0.00,Wunderground v.1.15,2013-02-11 11:43:00,
2013-02-11 06:48:00,21.3,17.5,30.19,SSW,194,1.0,1.0,85,0.00,,,0.00,Wunderground v.1.15,2013-02-11 11:48:00,
2013-02-11 06:53:00,21.5,17.7,30.19,SSW,194,0.0,1.0,85,0.00,,,0.00,Wunderground v.1.15,2013-02-11 11:53:00,
2013-02-11 06:58:00,21.7,17.9,30.19,SSW,194,0.0,1.0,85,0.00,,,0.00,Wunderground v.1.15,2013-02-11 11:58:00,
2013-02-11 07:03:00,21.8,18.0,30.19,SSW,194,0.0,0.0,85,0.00,,,0.00,Wunderground v.1.15,2013-02-11 12:03:00,
2013-02-11 07:08:00,22.0,18.2,30.19,SSW,194,0.0,0.0,85,0.00,,,0.00,Wunderground v.1.15,2013-02-11 12:08:00,
2013-02-11 07:13:00,22.1,18.6,30.19,SSW,194,0.0,0.0,86,0.00,,,0.00,Wunderground v.1.15,2013-02-11 12:13:00,
2013-02-11 07:18:00,22.2,18.7,30.18,SSW,194,0.0,0.0,86,0.00,,,0.00,Wunderground v.1.15,2013-02-11 12:18:00,
2013-02-11 07:23:00,22.4,18.8,30.18,SSW,194,0.0,0.0,86,0.00,,,0.00,Wunderground v.1.15,2013-02-11 12:23:00,
2013-02-11 07:28:00,22.6,19.0,30.17,SSW,194,0.0,0.0,86,0.00,,,0.00,Wunderground v.1.15,2013-02-11 12:28:00,
2013-02-11 07:33:00,22.8,19.2,30.17,SE,141,1.0,2.0,86,0.00,,,0.00,Wunderground v.1.15,2013-02-11 12:33:00,
2013-02-11 07:38:00,23.0,19.4,30.17,SE,138,1.0,3.0,86,0.00,,,0.00,Wunderground v.1.15,2013-02-11 12:38:00,
2013-02-11 07:43:00,23.2,19.6,30.17,SE,138,3.0,3.0,86,0.00,,,0.00,Wunderground v.1.15,2013-02-11 12:43:00,
2013-02-11 07:48:00,23.5,19.9,30.16,SSE,155,2.0,4.0,86,0.00,,,0.00,Wunderground v.1.15,2013-02-11 12:48:00,
2013-02-11 07:53:00,23.8,20.2,30.16,SE,144,2.0,4.0,86,0.00,,,0.00,Wunderground v.1.15,2013-02-11 12:53:00,
2013-02-11 07:58:00,24.1,20.5,30.16,SE,130,0.0,4.0,86,0.00,,,0.00,Wunderground v.1.15,2013-02-11 12:58:00,
2013-02-11 08:03:00,24.5,20.9,30.16,SE,130,1.0,4.0,86,0.00,,,0.00,Wunderground v.1.15,2013-02-11 13:03:00,
2013-02-11 08:08:00,24.9,21.3,30.15,SE,130,3.0,4.0,86,0.00,,,0.00,Wunderground v.1.15,2013-02-11 13:08:00,
2013-02-11 08:13:00,25.2,21.9,30.15,SE,130,1.0,3.0,87,0.00,,,0.00,Wunderground v.1.15,2013-02-11 13:13:00,
2013-02-11 08:18:00,25.5,22.2,30.15,SE,130,2.0,3.0,87,0.00,,,0.00,Wunderground v.1.15,2013-02-11 13:18:00,
2013-02-11 08:23:00,25.8,22.5,30.15,SE,130,3.0,3.0,87,0.00,,,0.00,Wunderground v.1.15,2013-02-11 13:23:00,
2013-02-11 08:28:00,26.1,22.8,30.15,SE,129,1.0,4.0,87,0.00,,,0.00,Wunderground v.1.15,2013-02-11 13:28:00,
2013-02-11 08:33:00,26.3,23.0,30.14,SE,129,2.0,3.0,87,0.00,,,0.00,Wunderground v.1.15,2013-02-11 13:33:00,
2013-02-11 08:38:00,26.7,23.4,30.14,SE,126,3.0,4.0,87,0.00,,,0.00,Wunderground v.1.15,2013-02-11 13:38:00,
2013-02-11 08:43:00,27.0,23.6,30.13,ESE,111,2.0,7.0,87,0.00,,,0.00,Wunderground v.1.15,2013-02-11 13:43:00,
2013-02-11 08:48:00,27.3,23.9,30.13,ESE,102,2.0,7.0,87,0.00,,,0.00,Wunderground v.1.15,2013-02-11 13:48:00,
2013-02-11 08:53:00,27.6,24.2,30.13,ESE,110,2.0,5.0,87,0.00,,,0.00,Wunderground v.1.15,2013-02-11 13:53:00,
2013-02-11 08:58:00,27.9,24.5,30.12,ESE,117,1.0,5.0,87,0.00,,,0.00,Wunderground v.1.15,2013-02-11 13:58:00,
2013-02-11 09:03:00,28.2,25.1,30.11,ESE,117,1.0,4.0,88,0.00,,,0.00,Wunderground v.1.15,2013-02-11 14:03:00,
2013-02-11 09:08:00,28.4,25.0,30.11,ESE,123,3.0,4.0,87,0.00,,,0.00,Wunderground v.1.15,2013-02-11 14:08:00,
2013-02-11 09:13:00,28.6,25.2,30.10,SE,138,5.0,7.0,87,0.00,,,0.00,Wunderground v.1.15,2013-02-11 14:13:00,
2013-02-11 09:18:00,28.9,25.8,30.10,SE,134,3.0,10.0,88,0.00,,,0.00,Wunderground v.1.15,2013-02-11 14:18:00,
2013-02-11 09:23:00,29.2,26.1,30.09,SE,142,5.0,8.0,88,0.00,,,0.00,Wunderground v.1.15,2013-02-11 14:23:00,
2013-02-11 09:28:00,29.5,26.4,30.09,ESE,110,7.0,10.0,88,0.00,,,0.00,Wunderground v.1.15,2013-02-11 14:28:00,
2013-02-11 09:33:00,29.7,26.6,30.08,ESE,122,8.0,12.0,88,0.00,,,0.00,Wunderground v.1.15,2013-02-11 14:33:00,
2013-02-11 09:38:00,29.9,26.8,30.08,SE,130,7.0,12.0,88,0.00,,,0.00,Wunderground v.1.15,2013-02-11 14:38:00,
2013-02-11 09:43:00,30.0,26.9,30.07,ESE,115,5.0,11.0,88,0.00,,,0.00,Wunderground v.1.15,2013-02-11 14:43:00,
2013-02-11 09:48:00,30.1,27.0,30.07,ESE,121,5.0,11.0,88,0.00,,,0.00,Wunderground v.1.15,2013-02-11 14:48:00,
2013-02-11 09:53:00,30.3,27.2,30.06,ESE,121,4.0,9.0,88,0.00,,,0.00,Wunderground v.1.15,2013-02-11 14:53:00,
2013-02-11 09:58:00,30.4,27.3,30.05,SE,134,7.0,9.0,88,0.00,,,0.00,Wunderground v.1.15,2013-02-11 14:58:00,
2013-02-11 10:03:00,30.5,27.4,30.05,ESE,120,5.0,9.0,88,0.00,,,0.00,Wunderground v.1.15,2013-02-11 15:03:00,
2013-02-11 10:09:00,30.7,27.6,30.04,ESE,117,7.0,11.0,88,0.00,,,0.00,Wunderground v.1.15,2013-02-11 15:09:00,
2013-02-11 10:14:00,30.8,27.7,30.03,SE,129,5.0,12.0,88,0.00,,,0.00,Wunderground v.1.15,2013-02-11 15:14:00,
2013-02-11 10:19:00,30.9,27.8,30.03,SE,141,9.0,12.0,88,0.00,,,0.00,Wunderground v.1.15,2013-02-11 15:19:00,
2013-02-11 10:24:00,31.1,28.0,30.03,SE,132,2.0,12.0,88,0.00,,,0.00,Wunderground v.1.15,2013-02-11 15:24:00,
2013-02-11 10:29:00,31.2,28.1,30.03,SSE,152,6.0,12.0,88,0.00,,,0.00,Wunderground v.1.15,2013-02-11 15:29:00,
2013-02-11 10:34:00,31.3,28.2,30.02,SE,128,8.0,11.0,88,0.00,,,0.00,Wunderground v.1.15,2013-02-11 15:34:00,
2013-02-11 10:39:00,31.3,28.4,30.02,SE,125,6.0,11.0,89,0.00,,,0.00,Wunderground v.1.15,2013-02-11 15:39:00,
2013-02-11 10:44:00,31.4,28.5,30.02,SE,136,6.0,9.0,89,0.00,,,0.00,Wunderground v.1.15,2013-02-11 15:44:00,
2013-02-11 10:49:00,31.5,28.6,30.01,ESE,122,4.0,9.0,89,0.00,,,0.00,Wunderground v.1.15,2013-02-11 15:49:00,
2013-02-11 10:54:00,31.5,28.6,30.01,ESE,121,5.0,8.0,89,0.00,,,0.00,Wunderground v.1.15,2013-02-11 15:54:00,
2013-02-11 10:59:00,31.6,28.7,30.00,ESE,117,5.0,8.0,89,0.00,,,0.00,Wunderground v.1.15,2013-02-11 15:59:00,
2013-02-11 11:04:00,31.6,28.5,30.00,SE,134,4.0,6.0,88,0.00,,,0.00,Wunderground v.1.15,2013-02-11 16:04:00,
2013-02-11 11:09:00,31.7,28.6,29.99,ESE,117,5.0,9.0,88,0.00,,,0.00,Wunderground v.1.15,2013-02-11 16:09:00,
2013-02-11 11:14:00,31.7,28.6,29.98,ESE,105,5.0,8.0,88,0.00,,,0.00,Wunderground v.1.15,2013-02-11 16:14:00,
2013-02-11 11:19:00,31.8,28.7,29.97,SE,124,4.0,8.0,88,0.00,,,0.00,Wunderground v.1.15,2013-02-11 16:19:00,
2013-02-11 11:24:00,31.8,28.9,29.97,ESE,109,4.0,9.0,89,0.00,,,0.00,Wunderground v.1.15,2013-02-11 16:24:00,
2013-02-11 11:29:00,31.9,29.0,29.96,ESE,118,7.0,9.0,89,0.00,,,0.00,Wunderground v.1.15,2013-02-11 16:29:00,
2013-02-11 11:34:00,31.9,29.0,29.95,ESE,123,4.0,8.0,89,0.00,,,0.00,Wunderground v.1.15,2013-02-11 16:34:00,
2013-02-11 11:39:00,32.0,29.1,29.95,ESE,107,4.0,8.0,89,0.00,,,0.00,Wunderground v.1.15,2013-02-11 16:39:00,
2013-02-11 11:44:00,32.0,29.1,29.94,East,101,5.0,7.0,89,0.00,,,0.00,Wunderground v.1.15,2013-02-11 16:44:00,
2013-02-11 11:49:00,32.1,29.2,29.93,SE,132,3.0,9.0,89,0.00,,,0.00,Wunderground v.1.15,2013-02-11 16:49:00,
2013-02-11 11:54:00,32.1,29.2,29.92,ESE,107,5.0,7.0,89,0.00,,,0.00,Wunderground v.1.15,2013-02-11 16:54:00,
2013-02-11 11:59:00,32.2,29.3,29.92,SE,132,3.0,7.0,89,0.00,,,0.00,Wunderground v.1.15,2013-02-11 16:59:00,
2013-02-11 12:04:00,32.3,29.4,29.91,ESE,121,4.0,9.0,89,0.00,,,0.00,Wunderground v.1.15,2013-02-11 17:04:00,
2013-02-11 12:09:00,32.3,29.4,29.91,ESE,115,5.0,9.0,89,0.00,,,0.00,Wunderground v.1.15,2013-02-11 17:09:00,
2013-02-11 12:14:00,32.4,29.5,29.90,SE,125,3.0,7.0,89,0.00,,,0.00,Wunderground v.1.15,2013-02-11 17:14:00,
2013-02-11 12:19:00,32.4,29.5,29.90,SE,125,4.0,8.0,89,0.00,,,0.00,Wunderground v.1.15,2013-02-11 17:19:00,
2013-02-11 12:24:00,32.5,29.6,29.89,SE,125,3.0,5.0,89,0.00,,,0.00,Wunderground v.1.15,2013-02-11 17:24:00,
2013-02-11 12:29:00,32.6,29.7,29.88,SE,145,2.0,8.0,89,0.00,,,0.00,Wunderground v.1.15,2013-02-11 17:29:00,
2013-02-11 12:34:00,32.6,29.7,29.88,SE,132,4.0,5.0,89,0.00,,,0.00,Wunderground v.1.15,2013-02-11 17:34:00,
2013-02-11 12:39:00,32.7,29.8,29.87,SE,126,2.0,5.0,89,0.00,,,0.00,Wunderground v.1.15,2013-02-11 17:39:00,
2013-02-11 12:44:00,32.7,29.8,29.87,SE,125,4.0,4.0,89,0.00,,,0.00,Wunderground v.1.15,2013-02-11 17:44:00,
2013-02-11 12:49:00,32.8,29.9,29.86,ESE,123,2.0,5.0,89,0.00,,,0.00,Wunderground v.1.15,2013-02-11 17:49:00,
2013-02-11 12:54:00,32.8,29.9,29.86,ESE,122,2.0,3.0,89,0.00,,,0.00,Wunderground v.1.15,2013-02-11 17:54:00,
2013-02-11 12:59:00,32.7,29.8,29.85,ESE,123,1.0,3.0,89,0.00,,,0.00,Wunderground v.1.15,2013-02-11 17:59:00,
2013-02-11 13:04:00,32.8,29.9,29.85,ESE,123,3.0,3.0,89,0.00,,,0.00,Wunderground v.1.15,2013-02-11 18:04:00,
2013-02-11 13:09:00,32.8,29.9,29.84,ESE,106,2.0,5.0,89,0.00,,,0.00,Wunderground v.1.15,2013-02-11 18:09:00,
2013-02-11 13:14:00,32.8,29.9,29.84,ESE,106,0.0,2.0,89,0.00,,,0.00,Wunderground v.1.15,2013-02-11 18:14:00,
2013-02-11 13:20:00,32.8,29.9,29.83,ESE,106,0.0,0.0,89,0.00,,,0.00,Wunderground v.1.15,2013-02-11 18:20:00,
2013-02-11 13:25:00,33.0,30.1,29.83,ESE,106,0.0,3.0,89,0.00,,,0.00,Wunderground v.1.15,2013-02-11 18:25:00,
2013-02-11 13:30:00,33.0,30.1,29.82,ESE,106,3.0,3.0,89,0.00,,,0.00,Wunderground v.1.15,2013-02-11 18:30:00,
2013-02-11 13:35:00,33.2,30.3,29.81,ESE,122,4.0,8.0,89,0.00,,,0.00,Wunderground v.1.15,2013-02-11 18:35:00,
2013-02-11 13:40:00,33.6,30.7,29.81,SE,144,0.0,3.0,89,0.00,,,0.00,Wunderground v.1.15,2013-02-11 18:40:00,
2013-02-11 13:45:00,33.8,30.9,29.80,SE,144,0.0,3.0,89,0.00,,,0.00,Wunderground v.1.15,2013-02-11 18:45:00,
2013-02-11 13:50:00,33.8,30.9,29.79,SE,144,0.0,0.0,89,0.00,,,0.00,Wunderground v.1.15,2013-02-11 18:50:00,
2013-02-11 13:55:00,33.9,31.0,29.79,SE,144,0.0,2.0,89,0.00,,,0.00,Wunderground v.1.15,2013-02-11 18:55:00,
2013-02-11 14:00:00,33.9,31.0,29.78,SE,144,0.0,0.0,89,0.00,,,0.00,Wunderground v.1.15,2013-02-11 19:00:00,
2013-02-11 14:05:00,34.1,31.2,29.78,SE,145,2.0,3.0,89,0.00,,,0.00,Wunderground v.1.15,2013-02-11 19:05:00,
2013-02-11 14:10:00,34.4,31.8,29.78,SE,145,0.0,0.0,90,0.00,,,0.00,Wunderground v.1.15,2013-02-11 19:10:00,
2013-02-11 14:15:00,34.4,31.5,29.77,SSE,150,3.0,3.0,89,0.00,,,0.00,Wunderground v.1.15,2013-02-11 19:15:00,
2013-02-11 14:20:00,34.8,32.2,29.77,South,184,2.0,2.0,90,0.00,,,0.00,Wunderground v.1.15,2013-02-11 19:20:00,
2013-02-11 14:25:00,35.4,32.8,29.76,SW,215,1.0,4.0,90,0.00,,,0.00,Wunderground v.1.15,2013-02-11 19:25:00,
2013-02-11 14:30:00,36.1,33.5,29.76,SSW,192,3.0,4.0,90,0.00,,,0.00,Wunderground v.1.15,2013-02-11 19:30:00,
2013-02-11 14:35:00,36.6,33.9,29.75,SSW,193,1.0,4.0,90,0.00,,,0.00,Wunderground v.1.15,2013-02-11 19:35:00,
2013-02-11 14:40:00,37.1,34.4,29.75,SSW,209,3.0,4.0,90,0.00,,,0.00,Wunderground v.1.15,2013-02-11 19:40:00,
2013-02-11 14:45:00,37.6,34.9,29.75,South,184,2.0,7.0,90,0.00,,,0.00,Wunderground v.1.15,2013-02-11 19:45:00,
2013-02-11 14:50:00,37.9,35.2,29.75,SSW,209,0.0,5.0,90,0.00,,,0.00,Wunderground v.1.15,2013-02-11 19:50:00,
2013-02-11 14:55:00,38.0,35.3,29.75,South,190,2.0,5.0,90,0.00,,,0.00,Wunderground v.1.15,2013-02-11 19:55:00,
2013-02-11 15:00:00,38.2,35.5,29.74,SW,234,0.0,2.0,90,0.00,,,0.00,Wunderground v.1.15,2013-02-11 20:00:00,
2013-02-11 15:05:00,38.2,35.5,29.75,WSW,239,0.0,5.0,90,0.00,,,0.00,Wunderground v.1.15,2013-02-11 20:05:00,
2013-02-11 15:11:00,38.3,35.6,29.74,SSW,196,4.0,5.0,90,0.00,,,0.00,Wunderground v.1.15,2013-02-11 20:11:00,
2013-02-11 15:16:00,38.5,35.8,29.74,SSW,203,1.0,5.0,90,0.00,,,0.00,Wunderground v.1.15,2013-02-11 20:16:00,
2013-02-11 15:21:00,38.8,36.1,29.74,SSW,213,2.0,3.0,90,0.37,,,0.02,Wunderground v.1.15,2013-02-11 20:21:00,
2013-02-11 15:26:00,39.0,36.3,29.74,SSW,210,0.0,6.0,90,0.09,,,0.02,Wunderground v.1.15,2013-02-11 20:26:00,
2013-02-11 15:31:00,39.1,36.4,29.73,SSW,207,3.0,4.0,90,0.05,,,0.02,Wunderground v.1.15,2013-02-11 20:31:00,
2013-02-11 15:36:00,39.2,36.5,29.73,South,179,1.0,6.0,90,0.04,,,0.02,Wunderground v.1.15,2013-02-11 20:36:00,
2013-02-11 15:41:00,39.3,36.6,29.72,SSW,203,0.0,2.0,90,0.00,,,0.02,Wunderground v.1.15,2013-02-11 20:41:00,
2013-02-11 15:46:00,39.3,36.6,29.72,SW,217,2.0,7.0,90,0.00,,,0.02,Wunderground v.1.15,2013-02-11 20:46:00,
2013-02-11 15:51:00,39.4,36.7,29.72,SW,217,1.0,2.0,90,0.00,,,0.02,Wunderground v.1.15,2013-02-11 20:51:00,
2013-02-11 15:56:00,39.4,36.7,29.72,WSW,257,4.0,5.0,90,0.00,,,0.02,Wunderground v.1.15,2013-02-11 20:56:00,
2013-02-11 16:01:00,39.3,36.6,29.72,WSW,257,0.0,2.0,90,0.00,,,0.02,Wunderground v.1.15,2013-02-11 21:01:00,
2013-02-11 16:06:00,39.2,36.5,29.71,WSW,257,0.0,2.0,90,0.00,,,0.02,Wunderground v.1.15,2013-02-11 21:06:00,
2013-02-11 16:11:00,39.1,36.4,29.71,WSW,256,0.0,1.0,90,0.00,,,0.02,Wunderground v.1.15,2013-02-11 21:11:00,
2013-02-11 16:16:00,38.8,36.1,29.70,WSW,257,0.0,1.0,90,0.00,,,0.03,Wunderground v.1.15,2013-02-11 21:16:00,
2013-02-11 16:21:00,38.6,35.9,29.70,WSW,257,0.0,0.0,90,0.13,,,0.04,Wunderground v.1.15,2013-02-11 21:21:00,
2013-02-11 16:26:00,38.3,35.6,29.70,WSW,257,0.0,0.0,90,0.07,,,0.04,Wunderground v.1.15,2013-02-11 21:26:00,
2013-02-11 16:31:00,38.0,35.3,29.69,WSW,257,0.0,0.0,90,0.04,,,0.04,Wunderground v.1.15,2013-02-11 21:31:00,
2013-02-11 16:36:00,37.8,35.1,29.69,WSW,257,0.0,0.0,90,0.04,,,0.05,Wunderground v.1.15,2013-02-11 21:36:00,
2013-02-11 16:41:00,37.6,34.9,29.68,WSW,258,0.0,0.0,90,0.04,,,0.05,Wunderground v.1.15,2013-02-11 21:41:00,
2013-02-11 16:46:00,37.3,34.6,29.68,WSW,257,0.0,2.0,90,0.06,,,0.06,Wunderground v.1.15,2013-02-11 21:46:00,
2013-02-11 16:51:00,37.0,34.3,29.68,WSW,257,0.0,0.0,90,0.06,,,0.06,Wunderground v.1.15,2013-02-11 21:51:00,
2013-02-11 16:56:00,36.8,34.1,29.68,WSW,257,1.0,1.0,90,0.05,,,0.07,Wunderground v.1.15,2013-02-11 21:56:00,
2013-02-11 17:01:00,36.7,34.0,29.67,WSW,257,1.0,3.0,90,0.05,,,0.07,Wunderground v.1.15,2013-02-11 22:01:00,
2013-02-11 17:06:00,36.6,33.9,29.67,WSW,257,1.0,3.0,90,0.08,,,0.08,Wunderground v.1.15,2013-02-11 22:06:00,
2013-02-11 17:11:00,36.5,33.8,29.67,WSW,257,0.0,1.0,90,0.07,,,0.08,Wunderground v.1.15,2013-02-11 22:11:00,
2013-02-11 17:16:00,36.4,33.7,29.67,WSW,257,0.0,2.0,90,0.06,,,0.09,Wunderground v.1.15,2013-02-11 22:16:00,
2013-02-11 17:21:00,36.3,33.6,29.66,WSW,257,0.0,2.0,90,0.11,,,0.10,Wunderground v.1.15,2013-02-11 22:21:00,
2013-02-11 17:26:00,36.2,33.5,29.67,WSW,257,0.0,3.0,90,0.08,,,0.10,Wunderground v.1.15,2013-02-11 22:26:00,
2013-02-11 17:31:00,36.1,33.5,29.67,WSW,257,1.0,2.0,90,0.07,,,0.11,Wunderground v.1.15,2013-02-11 22:31:00,
2013-02-11 17:36:00,36.0,33.4,29.67,West,264,1.0,3.0,90,0.12,,,0.12,Wunderground v.1.15,2013-02-11 22:36:00,
2013-02-11 17:41:00,36.0,33.4,29.67,West,264,2.0,2.0,90,0.09,,,0.13,Wunderground v.1.15,2013-02-11 22:41:00,
2013-02-11 17:46:00,36.0,33.4,29.66,West,264,2.0,4.0,90,0.13,,,0.14,Wunderground v.1.15,2013-02-11 22:46:00,
2013-02-11 17:51:00,36.0,33.4,29.66,West,264,3.0,3.0,90,0.08,,,0.15,Wunderground v.1.15,2013-02-11 22:51:00,
2013-02-11 17:56:00,35.9,33.3,29.66,West,264,0.0,3.0,90,0.12,,,0.16,Wunderground v.1.15,2013-02-11 22:56:00,
2013-02-11 18:01:00,35.8,33.2,29.66,West,264,0.0,2.0,90,0.10,,,0.16,Wunderground v.1.15,2013-02-11 23:01:00,
2013-02-11 18:06:00,35.7,33.1,29.66,West,264,0.0,4.0,90,0.06,,,0.17,Wunderground v.1.15,2013-02-11 23:06:00,
2013-02-11 18:12:00,35.6,33.0,29.66,West,264,0.0,1.0,90,0.12,,,0.18,Wunderground v.1.15,2013-02-11 23:12:00,
2013-02-11 18:17:00,35.4,32.8,29.66,West,263,2.0,2.0,90,0.09,,,0.18,Wunderground v.1.15,2013-02-11 23:17:00,
2013-02-11 18:22:00,35.3,32.7,29.65,West,263,0.0,2.0,90,0.05,,,0.19,Wunderground v.1.15,2013-02-11 23:22:00,
2013-02-11 18:27:00,35.2,32.6,29.65,West,276,2.0,4.0,90,0.05,,,0.19,Wunderground v.1.15,2013-02-11 23:27:00,
2013-02-11 18:32:00,35.2,32.6,29.65,West,277,1.0,2.0,90,0.08,,,0.20,Wunderground v.1.15,2013-02-11 23:32:00,
2013-02-11 18:37:00,35.2,32.6,29.65,West,276,0.0,2.0,90,0.07,,,0.20,Wunderground v.1.15,2013-02-11 23:37:00,
2013-02-11 18:42:00,35.2,32.6,29.65,West,277,0.0,0.0,90,0.05,,,0.21,Wunderground v.1.15,2013-02-11 23:42:00,
2013-02-11 18:47:00,35.2,32.6,29.66,West,276,0.0,0.0,90,0.10,,,0.22,Wunderground v.1.15,2013-02-11 23:47:00,
2013-02-11 18:52:00,35.1,32.5,29.65,West,277,0.0,0.0,90,0.10,,,0.22,Wunderground v.1.15,2013-02-11 23:52:00,
2013-02-11 18:57:00,35.0,32.4,29.65,West,276,0.0,2.0,90,0.06,,,0.22,Wunderground v.1.15,2013-02-11 23:57:00,
2013-02-11 19:02:00,34.9,32.3,29.64,West,276,0.0,4.0,90,0.05,,,0.23,Wunderground v.1.15,2013-02-12 00:02:00,
2013-02-11 19:07:00,34.9,32.3,29.64,West,276,0.0,4.0,90,0.07,,,0.24,Wunderground v.1.15,2013-02-12 00:07:00,
2013-02-11 19:12:00,34.8,32.2,29.64,West,276,0.0,1.0,90,0.07,,,0.24,Wunderground v.1.15,2013-02-12 00:12:00,
2013-02-11 19:17:00,34.7,32.1,29.64,West,276,1.0,2.0,90,0.06,,,0.24,Wunderground v.1.15,2013-02-12 00:17:00,
2013-02-11 19:22:00,34.6,32.0,29.64,West,276,2.0,2.0,90,0.04,,,0.24,Wunderground v.1.15,2013-02-12 00:22:00,
2013-02-11 19:27:00,34.6,32.0,29.64,West,276,0.0,2.0,90,0.00,,,0.25,Wunderground v.1.15,2013-02-12 00:27:00,
2013-02-11 19:32:00,34.4,31.8,29.64,West,276,0.0,2.0,90,0.00,,,0.25,Wunderground v.1.15,2013-02-12 00:32:00,
2013-02-11 19:37:00,34.4,31.8,29.63,West,276,0.0,2.0,90,0.00,,,0.25,Wunderground v.1.15,2013-02-12 00:37:00,
2013-02-11 19:42:00,34.4,31.8,29.63,West,276,0.0,0.0,90,0.05,,,0.26,Wunderground v.1.15,2013-02-12 00:42:00,
2013-02-11 19:47:00,34.4,31.8,29.63,West,276,0.0,0.0,90,0.05,,,0.26,Wunderground v.1.15,2013-02-12 00:47:00,
2013-02-11 19:52:00,34.4,31.8,29.62,West,276,0.0,0.0,90,0.04,,,0.26,Wunderground v.1.15,2013-02-12 00:52:00,
2013-02-11 19:57:00,34.4,31.8,29.62,West,276,0.0,0.0,90,0.00,,,0.26,Wunderground v.1.15,2013-02-12 00:57:00,
2013-02-11 20:02:00,34.4,31.8,29.61,West,276,0.0,0.0,90,0.00,,,0.27,Wunderground v.1.15,2013-02-12 01:02:00,
2013-02-11 20:07:00,34.4,31.8,29.61,West,276,0.0,0.0,90,0.00,,,0.27,Wunderground v.1.15,2013-02-12 01:07:00,
2013-02-11 20:12:00,34.4,31.8,29.61,West,277,0.0,0.0,90,0.00,,,0.27,Wunderground v.1.15,2013-02-12 01:12:00,
2013-02-11 20:17:00,34.4,31.8,29.60,West,276,0.0,0.0,90,0.04,,,0.28,Wunderground v.1.15,2013-02-12 01:17:00,
2013-02-11 20:22:00,34.4,31.8,29.60,West,276,0.0,0.0,90,0.04,,,0.28,Wunderground v.1.15,2013-02-12 01:22:00,
2013-02-11 20:27:00,34.3,31.7,29.60,West,277,0.0,0.0,90,0.04,,,0.28,Wunderground v.1.15,2013-02-12 01:27:00,
2013-02-11 20:32:00,34.4,31.8,29.60,West,276,0.0,0.0,90,0.04,,,0.28,Wunderground v.1.15,2013-02-12 01:32:00,
2013-02-11 20:37:00,34.4,31.8,29.60,West,277,3.0,3.0,90,0.00,,,0.28,Wunderground v.1.15,2013-02-12 01:37:00,
2013-02-11 20:42:00,34.4,31.8,29.60,West,276,1.0,2.0,90,0.00,,,0.28,Wunderground v.1.15,2013-02-12 01:42:00,
2013-02-11 20:47:00,34.4,31.8,29.60,West,276,0.0,3.0,90,0.00,,,0.29,Wunderground v.1.15,2013-02-12 01:47:00,
2013-02-11 20:52:00,34.4,31.8,29.59,West,277,0.0,1.0,90,0.00,,,0.29,Wunderground v.1.15,2013-02-12 01:52:00,
2013-02-11 20:57:00,34.4,31.8,29.59,West,277,0.0,2.0,90,0.00,,,0.29,Wunderground v.1.15,2013-02-12 01:57:00,
2013-02-11 21:02:00,34.4,31.8,29.59,West,277,0.0,2.0,90,0.00,,,0.29,Wunderground v.1.15,2013-02-12 02:02:00,
2013-02-11 21:07:00,34.4,31.8,29.59,West,276,0.0,2.0,90,0.00,,,0.30,Wunderground v.1.15,2013-02-12 02:07:00,
2013-02-11 21:12:00,34.4,31.8,29.59,West,277,2.0,2.0,90,0.00,,,0.30,Wunderground v.1.15,2013-02-12 02:12:00,
2013-02-11 21:17:00,34.4,31.8,29.59,West,277,0.0,2.0,90,0.00,,,0.30,Wunderground v.1.15,2013-02-12 02:17:00,
2013-02-11 21:22:00,34.4,31.8,29.59,West,276,2.0,2.0,90,0.00,,,0.30,Wunderground v.1.15,2013-02-12 02:22:00,
2013-02-11 21:27:00,34.4,31.8,29.59,West,277,0.0,2.0,90,0.00,,,0.30,Wunderground v.1.15,2013-02-12 02:27:00,
2013-02-11 21:32:00,34.4,31.8,29.59,West,277,0.0,1.0,90,0.00,,,0.30,Wunderground v.1.15,2013-02-12 02:32:00,
2013-02-11 21:37:00,34.4,31.8,29.58,West,277,0.0,1.0,90,0.00,,,0.31,Wunderground v.1.15,2013-02-12 02:37:00,
2013-02-11 21:42:00,34.4,31.8,29.58,West,277,1.0,2.0,90,0.00,,,0.31,Wunderground v.1.15,2013-02-12 02:42:00,
2013-02-11 21:47:00,34.4,31.8,29.58,West,277,0.0,2.0,90,0.00,,,0.31,Wunderground v.1.15,2013-02-12 02:47:00,
2013-02-11 21:53:00,34.4,31.8,29.58,West,277,0.0,2.0,90,0.00,,,0.31,Wunderground v.1.15,2013-02-12 02:53:00,
2013-02-11 21:58:00,34.4,31.8,29.59,West,277,2.0,3.0,90,0.00,,,0.32,Wunderground v.1.15,2013-02-12 02:58:00,
2013-02-11 22:03:00,34.4,31.8,29.58,West,277,3.0,4.0,90,0.00,,,0.32,Wunderground v.1.15,2013-02-12 03:03:00,
2013-02-11 22:08:00,34.4,31.8,29.59,West,273,2.0,4.0,90,0.00,,,0.32,Wunderground v.1.15,2013-02-12 03:08:00,
2013-02-11 22:13:00,34.4,31.8,29.58,WNW,286,2.0,3.0,90,0.00,,,0.32,Wunderground v.1.15,2013-02-12 03:13:00,
2013-02-11 22:18:00,34.4,31.8,29.58,WNW,301,2.0,5.0,90,0.00,,,0.32,Wunderground v.1.15,2013-02-12 03:18:00,
2013-02-11 22:23:00,34.4,31.8,29.58,NNW,338,4.0,6.0,90,0.00,,,0.32,Wunderground v.1.15,2013-02-12 03:23:00,
2013-02-11 22:28:00,34.4,31.8,29.58,NW,315,2.0,6.0,90,0.00,,,0.32,Wunderground v.1.15,2013-02-12 03:28:00,
2013-02-11 22:33:00,34.4,31.8,29.58,NW,320,1.0,4.0,90,0.00,,,0.32,Wunderground v.1.15,2013-02-12 03:33:00,
2013-02-11 22:38:00,34.4,31.8,29.57,NW,309,0.0,4.0,90,0.00,,,0.33,Wunderground v.1.15,2013-02-12 03:38:00,
2013-02-11 22:43:00,34.6,32.0,29.57,WNW,292,3.0,5.0,90,0.00,,,0.33,Wunderground v.1.15,2013-02-12 03:43:00,
2013-02-11 22:48:00,34.7,32.1,29.57,NNW,329,3.0,5.0,90,0.00,,,0.33,Wunderground v.1.15,2013-02-12 03:48:00,
2013-02-11 22:53:00,34.8,32.2,29.57,NW,310,5.0,5.0,90,0.00,,,0.33,Wunderground v.1.15,2013-02-12 03:53:00,
2013-02-11 22:58:00,34.8,32.2,29.57,NNW,334,3.0,5.0,90,0.00,,,0.33,Wunderground v.1.15,2013-02-12 03:58:00,
2013-02-11 23:03:00,34.8,32.2,29.57,NW,322,4.0,6.0,90,0.00,,,0.34,Wunderground v.1.15,2013-02-12 04:03:00,
2013-02-11 23:08:00,34.9,32.3,29.58,WNW,300,6.0,6.0,90,0.00,,,0.34,Wunderground v.1.15,2013-02-12 04:08:00,
2013-02-11 23:13:00,34.8,32.2,29.57,NW,323,1.0,5.0,90,0.00,,,0.34,Wunderground v.1.15,2013-02-12 04:13:00,
2013-02-11 23:18:00,34.7,32.1,29.57,WNW,291,2.0,5.0,90,0.00,,,0.34,Wunderground v.1.15,2013-02-12 04:18:00,
2013-02-11 23:23:00,34.6,32.0,29.57,WNW,288,3.0,5.0,90,0.00,,,0.34,Wunderground v.1.15,2013-02-12 04:23:00,
2013-02-11 23:28:00,34.5,31.9,29.57,WNW,288,2.0,5.0,90,0.00,,,0.34,Wunderground v.1.15,2013-02-12 04:28:00,
2013-02-11 23:33:00,34.4,31.8,29.57,NW,304,4.0,4.0,90,0.00,,,0.34,Wunderground v.1.15,2013-02-12 04:33:00,
2013-02-11 23:38:00,34.4,31.8,29.58,NW,305,2.0,5.0,90,0.00,,,0.35,Wunderground v.1.15,2013-02-12 04:38:00,
2013-02-11 23:43:00,34.4,31.8,29.58,West,276,2.0,5.0,90,0.00,,,0.35,Wunderground v.1.15,2013-02-12 04:43:00,
2013-02-11 23:48:00,34.4,31.8,29.58,West,276,2.0,5.0,90,0.00,,,0.35,Wunderground v.1.15,2013-02-12 04:48:00,
2013-02-11 23:53:00,34.4,31.8,29.58,West,276,2.0,3.0,90,0.00,,,0.35,Wunderground v.1.15,2013-02-12 04:53:00,
2013-02-11 23:58:00,34.4,31.8,29.58,West,276,0.0,3.0,90,0.00,,,0.35,Wunderground v.1.15,2013-02-12 04:58:00,